Wind_Speed
27 28 22 20 21 17 21 23 20 22 24 24 22 23 23 22 22 21 20 19 18 17 15 21 29 38 38 35 36 20 43 34 31 33 24 27 30 30 32 24 20 17 14 8 7 6 6 6 9
25 25 22 20 17 19 24 21 21 21 22 22 22 20 20 21 22 22 23 26 22 22 19 20 24 27 36 34 38 28 23 22 24 33 26 33 37 37 32 26 19 16 12 11 11 9 5 7 10
24 26 23 19 14 18 24 19 19 21 19 18 18 19 19 20 21 24 25 26 27 27 28 26 25 27 25 35 36 33 22 20 17 28 26 41 38 36 29 26 24 17 15 14 11 7 7 9 8
22 25 21 17 15 18 21 18 19 19 15 17 17 19 21 24 23 23 27 32 30 28 27 29 26 23 27 30 29 25 19 21 18 24 35 38 37 33 28 25 20 21 18 14 11 9 9 9 9
22 23 22 17 16 20 18 19 18 15 15 16 19 20 24 24 24 26 29 32 30 30 28 28 26 28 25 23 25 20 22 24 26 22 29 39 36 31 28 27 25 21 16 14 13 9 10 9 10
21 22 21 18 17 19 18 18 16 15 13 15 19 23 24 26 24 26 28 31 32 28 31 26 27 28 23 27 24 20 21 21 24 23 27 27 34 32 33 29 23 19 18 18 13 9 11 12 11
21 21 21 19 20 20 17 16 15 15 12 16 18 21 24 23 21 23 24 28 32 31 31 31 32 29 27 29 26 26 25 23 22 27 29 31 40 35 34 27 23 22 20 20 12 11 11 10 12
21 21 21 19 19 18 17 16 16 14 13 18 19 20 26 20 22 21 21 22 26 25 28 34 34 34 32 34 34 26 24 26 22 23 27 31 43 37 34 28 25 24 21 17 13 12 13 12 16
21 20 22 21 17 15 18 17 17 14 11 15 20 22 26 24 21 19 17 14 15 20 21 23 31 39 26 35 31 28 26 26 22 26 27 39 47 41 38 27 27 24 21 17 14 13 13 13 14
22 20 23 22 17 14 19 18 18 17 13 15 19 20 24 25 25 16 14 13 13 15 16 18 20 19 17 22 29 25 29 35 26 27 32 36 48 40 38 31 28 24 22 17 15 15 13 15 18
21 22 22 23 17 14 18 18 19 20 16 16 17 19 19 24 21 16 14 10 10 9 12 12 21 23 27 30 31 28 35 32 28 31 32 46 50 43 36 30 28 24 22 19 15 16 18 20 21
21 22 22 25 19 12 16 20 19 22 17 16 19 20 22 21 20 18 15 10 9 8 9 9 14 16 20 17 27 27 32 35 33 31 34 39 50 40 37 34 28 26 26 22 19 17 20 24 22
19 23 22 25 21 13 15 16 18 21 17 17 20 20 22 20 16 14 15 12 8 9 9 11 11 15 15 21 28 33 34 32 32 31 43 43 42 47 37 37 29 26 29 24 21 23 23 25 26
20 23 22 22 23 15 14 13 15 21 16 17 17 19 21 18 13 13 12 12 10 9 10 13 14 14 12 22 29 31 33 22 28 42 37 45 42 46 39 42 30 30 28 24 25 23 22 21 23
21 23 22 20 23 17 14 11 12 16 16 16 15 16 19 15 12 15 13 10 9 8 14 15 17 14 8 15 28 40 38 30 33 45 37 33 34 47 48 41 32 31 29 27 26 24 23 21 25
22 24 22 22 24 18 14 12 12 12 15 14 15 14 15 13 12 12 14 11 10 11 14 16 14 15 8 3 26 30 32 31 36 39 34 38 34 41 48 37 35 34 32 28 29 28 26 25 27
21 22 22 26 25 20 12 14 12 9 13 14 14 12 15 14 13 13 14 14 13 14 10 13 13 11 9 5 14 26 28 31 32 36 31 30 33 35 35 36 36 35 31 29 29 27 26 28 29
21 22 27 26 26 19 14 13 15 9 11 13 13 13 16 16 15 12 13 13 14 14 11 9 12 10 6 6 8 16 24 27 27 29 31 25 26 30 30 33 34 26 26 27 28 24 27 30 31
24 23 23 26 25 21 17 13 14 9 12 13 13 11 14 18 16 13 12 13 12 13 10 8 10 23 10 10 9 10 13 20 29 25 31 24 19 19 23 29 29 29 29 28 27 28 30 31 31
28 27 24 25 25 23 21 13 12 13 14 13 11 14 13 18 18 13 11 10 11 11 10 7 7 7 9 10 17 10 7 9 11 19 23 22 20 19 20 20 26 28 29 28 30 30 29 30 29
27 26 26 24 26 27 22 17 10 14 11 10 12 11 12 16 16 13 10 10 8 7 10 5 6 8 7 17 16 17 14 14 10 15 19 21 18 19 24 24 25 26 27 29 29 30 30 28 27
29 27 30 29 29 25 25 17 7 12 13 13 13 12 12 15 15 11 8 9 6 5 5 5 3 4 4 2 8 15 15 14 16 17 19 21 20 21 25 28 27 26 28 27 25 26 26 24 24
27 34 32 33 31 30 25 24 11 10 12 16 15 14 15 14 15 12 7 9 7 5 3 5 5 2 3 2 4 5 6 8 8 18 24 21 24 22 24 26 26 20 19 19 18 19 21 21 21
37 36 36 34 35 32 25 26 14 8 11 15 14 15 19 17 17 16 11 8 8 7 4 6 8 7 4 3 6 5 5 8 10 11 14 16 17 16 18 19 18 18 20 20 19 23 24 26 26
40 38 36 36 41 33 32 29 15 12 12 13 17 15 15 20 16 15 15 9 9 10 8 7 5 5 6 7 6 8 9 10 10 10 11 13 13 16 16 16 18 20 22 24 28 27 31 29 29
34 33 37 40 41 33 35 36 17 16 14 14 14 16 14 18 18 14 18 13 11 10 11 11 10 8 6 6 8 10 10 10 12 13 13 14 16 16 17 17 19 21 24 25 27 29 31 32 32
40 42 38 40 41 39 38 37 25 19 16 15 16 15 16 17 20 17 20 15 15 12 12 11 12 11 12 12 13 12 13 15 15 14 15 15 16 17 18 17 19 22 25 27 30 31 33 35 35
40 42 42 44 44 42 39 36 31 18 19 17 15 16 17 19 22 22 22 19 17 15 13 13 15 18 16 14 15 14 13 13 16 18 20 20 19 19 19 22 25 26 30 33 34 36 36 39 38
33 37 39 43 43 41 33 28 32 26 22 22 18 20 20 22 25 27 23 21 19 22 19 19 18 17 18 18 17 18 19 19 18 17 17 20 20 22 24 25 26 26 31 35 38 38 41 42 41
32 34 34 38 42 40 39 32 37 29 24 24 19 17 20 22 25 29 28 26 23 25 24 21 22 23 23 23 19 19 18 18 21 22 21 22 24 25 23 25 27 27 27 27 32 38 41 46 46
Wind_Direction
302 307 302 301 301 296 292 295 291 291 297 302 303 304 303 299 290 277 281 271 291 287 275 264 248 243 239 237 236 254 221 224 232 223 223 220 189 198 190 196 193 199 199 193 221 237 247 279 286
299 304 300 298 294 300 297 293 292 296 301 314 313 307 305 303 288 286 279 281 286 281 271 269 267 262 250 239 252 251 235 218 231 223 219 212 201 206 194 192 195 192 195 216 227 226 246 276 282
296 301 297 292 285 296 295 293 294 298 317 309 305 299 298 297 283 280 275 272 268 272 268 260 263 263 249 243 248 268 258 233 242 228 233 206 199 198 197 197 196 194 209 216 212 228 246 259 271
295 298 290 285 284 292 292 291 290 309 298 296 302 300 299 296 291 288 284 276 270 265 265 253 256 254 244 224 239 248 254 256 237 235 200 204 204 196 189 198 191 213 203 203 214 227 252 259 274
292 291 285 276 281 295 291 286 301 291 285 302 307 305 296 288 288 283 277 277 272 267 268 249 248 244 233 220 213 222 227 230 241 247 204 205 202 193 196 198 201 199 191 204 216 225 248 251 268
285 282 281 276 286 300 283 292 288 278 289 308 307 303 303 300 296 289 285 280 276 267 259 241 237 235 242 234 217 212 222 231 229 231 236 224 201 192 204 199 193 201 203 211 213 229 245 252 269
279 275 274 274 283 300 284 287 272 275 303 308 301 295 304 300 302 295 290 283 276 268 255 243 234 222 233 215 210 224 218 223 227 228 231 236 208 196 203 196 204 206 206 211 216 233 243 244 254
273 273 271 268 285 299 279 274 265 276 299 305 299 304 310 309 309 304 291 289 283 275 258 254 236 226 214 228 204 213 227 219 226 219 228 221 205 197 200 208 204 210 212 214 228 236 244 251 261
265 271 270 264 282 296 277 273 268 272 286 296 296 302 312 314 315 307 299 301 294 290 272 255 237 219 206 219 229 222 225 219 230 231 212 226 197 199 203 211 208 213 218 220 226 243 245 258 263
260 266 264 261 277 290 269 265 269 269 278 288 299 301 309 314 318 315 301 300 288 292 289 266 237 198 197 204 210 212 230 211 235 209 207 216 194 199 204 207 212 217 225 226 234 248 243 249 255
261 264 263 260 270 286 270 267 265 266 273 287 297 306 310 317 313 315 306 304 280 297 300 262 234 215 211 199 224 230 227 220 225 216 215 214 202 201 203 210 214 219 233 229 236 247 249 250 252
257 260 263 261 267 278 273 274 276 267 269 286 289 300 310 313 312 314 309 304 292 284 288 246 226 232 234 215 230 230 230 224 224 220 218 212 195 199 204 209 213 222 233 234 240 244 252 254 255
256 258 257 262 267 272 278 276 278 274 277 285 294 295 301 308 317 307 306 302 294 289 292 275 235 226 225 224 219 224 230 212 219 209 208 198 198 199 206 213 213 223 230 239 247 245 252 257 256
251 252 256 261 266 271 282 283 278 282 285 289 297 299 298 305 327 326 311 296 296 291 269 267 259 207 224 228 214 209 207 213 215 206 206 203 207 203 212 207 213 226 231 232 240 249 253 256 259
252 249 254 258 261 267 285 277 272 290 295 299 296 305 294 304 332 336 339 329 321 298 272 255 260 220 235 229 209 207 216 210 200 204 204 212 219 208 208 204 216 227 226 234 242 247 253 258 257
250 251 255 261 255 262 280 268 272 287 288 298 290 303 286 307 318 326 328 336 343 328 280 250 265 196 171 218 200 198 196 212 203 211 227 227 224 231 206 210 217 222 226 236 242 247 252 261 259
250 253 250 261 253 256 274 270 270 289 286 281 284 291 285 296 312 319 321 325 339 349 308 241 240 211 224 203 197 188 204 211 220 227 221 225 222 219 216 209 214 221 225 235 246 255 260 260 258
251 242 245 253 256 257 263 266 282 293 285 277 282 275 288 288 292 305 309 315 331 351 8 238 233 248 203 225 187 171 191 198 209 206 200 205 206 209 207 214 224 225 237 242 251 261 264 264 261
243 243 243 250 255 258 257 264 272 288 278 280 286 291 280 285 282 293 300 310 320 331 354 12 256 253 212 273 190 186 188 192 197 200 205 213 212 219 225 227 235 239 248 257 266 265 266 261 260
236 241 246 253 253 252 252 247 266 284 277 282 287 290 280 272 276 285 293 300 310 317 323 347 346 329 249 228 212 197 192 201 203 213 214 223 226 230 237 245 243 247 253 259 267 267 263 261 253
235 240 245 250 248 252 252 256 257 275 282 291 280 278 278 262 264 280 291 299 300 301 304 329 346 344 340 227 234 232 226 244 223 227 234 229 232 243 247 252 245 254 264 267 263 261 259 252 243
227 235 241 245 250 256 254 258 249 274 284 287 270 271 267 260 260 270 286 288 288 291 302 314 0 344 357 354 245 243 249 240 250 239 227 232 248 250 256 256 253 259 266 262 256 252 250 247 243
221 231 237 241 249 247 253 259 258 261 272 277 275 277 267 258 253 263 275 281 276 268 285 304 310 340 328 297 202 205 229 232 236 231 228 240 248 248 248 248 251 244 248 249 250 244 245 243 240
223 229 235 241 245 245 247 256 248 254 264 275 267 278 273 257 246 262 260 271 280 273 270 282 293 300 279 260 272 249 228 244 228 209 214 220 228 231 233 226 217 222 231 240 244 248 246 248 247
223 226 234 240 246 250 254 257 249 244 258 263 275 273 273 258 249 247 252 244 267 270 274 270 270 281 294 288 257 252 254 235 233 239 237 237 239 238 234 232 235 237 241 244 243 240 248 255 257
228 229 238 240 248 256 252 259 240 242 247 248 257 266 268 256 251 245 244 241 244 258 269 270 266 258 256 270 281 269 244 248 244 234 231 228 228 231 237 240 245 250 253 257 261 263 261 258 261
220 224 230 240 245 248 252 257 253 239 240 247 252 257 264 257 250 250 234 245 249 242 252 268 274 264 277 284 270 262 255 258 256 246 246 243 241 245 252 257 261 261 262 261 259 260 259 258 257
224 224 225 234 239 244 251 253 260 252 239 247 247 251 246 254 246 246 241 241 253 235 242 266 273 269 277 278 268 264 273 264 255 253 252 250 256 263 267 267 266 263 267 264 264 264 260 257 255
226 228 230 235 239 243 248 255 256 246 247 252 241 237 242 246 231 234 241 244 245 244 256 261 261 260 271 271 260 264 271 274 275 268 264 259 263 273 279 276 280 278 279 265 268 268 264 263 263
235 236 231 234 242 243 248 246 258 257 250 254 254 234 240 242 232 228 236 241 242 244 246 261 256 261 266 261 260 256 265 277 281 274 271 273 280 281 281 279 278 286 281 279 281 274 270 262 261
Height
5822 5820 5819 5818 5819 5815 5812 5810 5807 5804 5802 5800 5798 5795 5793 5790 5789 5790 5786 5784 5785 5784 5784 5786 5788 5789 5793 5796 5797 5800 5799 5805 5808 5812 5815 5819 5821 5827 5826 5830 5832 5835 5838 5838 5840 5842 5843 5844 5845
5818 5817 5816 5814 5814 5811 5807 5805 5803 5799 5797 5795 5793 5791 5789 5787 5784 5783 5782 5780 5781 5780 5781 5782 5783 5786 5788 5791 5791 5794 5798 5800 5805 5808 5811 5814 5817 5821 5823 5827 5829 5833 5833 5835 5838 5840 5840 5842 5842
5815 5812 5812 5809 5809 5808 5805 5801 5798 5794 5792 5790 5788 5785 5783 5781 5779 5778 5777 5776 5777 5777 5776 5776 5779 5780 5782 5785 5788 5788 5794 5796 5798 5802 5805 5810 5812 5816 5820 5825 5827 5828 5829 5832 5836 5837 5837 5839 5839
5811 5808 5807 5806 5804 5803 5800 5796 5793 5791 5790 5787 5783 5780 5780 5777 5776 5774 5772 5771 5773 5772 5771 5772 5774 5775 5777 5778 5783 5786 5790 5792 5796 5798 5803 5805 5809 5813 5817 5821 5822 5824 5825 5829 5833 5833 5834 5835 5837
5806 5804 5802 5801 5800 5798 5794 5792 5790 5788 5786 5784 5780 5778 5776 5774 5772 5770 5768 5765 5766 5766 5765 5765 5769 5771 5773 5774 5778 5782 5786 5789 5791 5793 5798 5803 5805 5809 5815 5817 5818 5821 5822 5827 5830 5829 5832 5832 5833
5802 5801 5799 5797 5795 5793 5790 5788 5786 5785 5783 5780 5778 5776 5773 5769 5767 5763 5761 5759 5757 5759 5757 5759 5761 5765 5768 5773 5771 5776 5781 5784 5787 5790 5792 5799 5802 5806 5812 5813 5814 5816 5821 5825 5825 5826 5828 5830 5830
5797 5796 5795 5794 5792 5789 5786 5785 5783 5782 5779 5777 5777 5774 5771 5766 5762 5758 5755 5751 5749 5751 5751 5751 5751 5758 5762 5765 5766 5771 5775 5776 5782 5786 5790 5794 5798 5802 5808 5809 5810 5814 5818 5821 5820 5822 5823 5825 5827
5793 5792 5791 5790 5787 5784 5782 5781 5780 5779 5776 5775 5773 5771 5766 5763 5757 5753 5750 5745 5742 5742 5742 5741 5744 5749 5755 5757 5754 5763 5770 5773 5778 5782 5784 5789 5793 5797 5802 5804 5807 5811 5815 5816 5816 5818 5819 5822 5823
5787 5787 5786 5785 5784 5781 5778 5777 5777 5776 5773 5772 5770 5767 5763 5759 5754 5749 5745 5740 5739 5738 5735 5735 5735 5744 5749 5754 5754 5763 5766 5770 5773 5776 5781 5782 5785 5792 5797 5801 5805 5807 5811 5811 5810 5814 5816 5818 5820
5782 5782 5781 5780 5779 5777 5774 5774 5773 5772 5770 5768 5766 5764 5760 5755 5751 5746 5742 5738 5736 5735 5733 5730 5729 5740 5745 5749 5754 5758 5758 5760 5768 5770 5774 5775 5781 5788 5793 5797 5801 5804 5807 5806 5808 5809 5812 5814 5816
5777 5778 5776 5774 5774 5772 5770 5770 5770 5768 5767 5765 5763 5760 5758 5753 5749 5745 5740 5737 5736 5733 5732 5730 5731 5736 5740 5742 5747 5750 5754 5760 5762 5766 5768 5771 5776 5783 5788 5792 5797 5801 5802 5802 5804 5806 5807 5810 5812
5772 5771 5771 5770 5770 5768 5766 5766 5766 5764 5763 5761 5760 5758 5755 5752 5747 5743 5738 5737 5736 5733 5732 5731 5730 5732 5732 5734 5742 5745 5751 5755 5757 5759 5762 5762 5772 5778 5783 5788 5793 5796 5797 5798 5800 5801 5803 5805 5807
5766 5765 5766 5766 5765 5764 5763 5762 5761 5760 5759 5758 5757 5755 5753 5750 5745 5742 5738 5735 5735 5733 5730 5729 5728 5730 5732 5734 5737 5741 5745 5750 5751 5754 5756 5761 5768 5774 5779 5784 5789 5790 5793 5793 5794 5797 5799 5800 5802
5761 5760 5761 5761 5761 5761 5759 5758 5757 5756 5754 5754 5754 5752 5751 5749 5744 5740 5737 5734 5732 5731 5730 5729 5727 5728 5729 5729 5732 5734 5741 5744 5747 5749 5753 5760 5764 5770 5774 5779 5783 5785 5787 5789 5790 5793 5795 5795 5797
5755 5757 5755 5756 5756 5757 5755 5754 5753 5753 5751 5750 5750 5749 5747 5746 5743 5739 5735 5732 5729 5728 5727 5727 5726 5725 5724 5723 5724 5730 5736 5740 5742 5747 5751 5756 5761 5765 5769 5774 5777 5781 5784 5785 5786 5788 5791 5793 5794
5749 5751 5752 5751 5751 5753 5752 5749 5749 5749 5749 5748 5747 5746 5745 5743 5741 5739 5735 5732 5730 5728 5724 5721 5722 5723 5723 5721 5721 5727 5731 5736 5740 5744 5749 5753 5757 5760 5765 5768 5773 5777 5780 5780 5782 5784 5786 5787 5788
5744 5746 5748 5746 5747 5749 5749 5745 5744 5746 5746 5745 5744 5743 5742 5741 5739 5738 5735 5730 5728 5725 5719 5720 5722 5722 5722 5722 5722 5723 5729 5734 5738 5742 5746 5750 5753 5757 5761 5765 5770 5773 5775 5777 5778 5779 5781 5782 5783
5738 5739 5740 5742 5742 5745 5745 5743 5741 5742 5743 5742 5741 5740 5739 5738 5737 5736 5734 5731 5726 5725 5721 5720 5722 5721 5722 5722 5723 5725 5727 5731 5733 5739 5745 5748 5751 5755 5758 5763 5767 5770 5772 5772 5773 5775 5775 5778 5779
5730 5733 5736 5737 5737 5740 5741 5740 5738 5739 5739 5739 5737 5736 5736 5735 5734 5733 5732 5730 5727 5724 5724 5722 5722 5721 5722 5722 5724 5726 5728 5730 5733 5738 5743 5747 5749 5752 5756 5760 5763 5765 5767 5768 5768 5769 5770 5772 5772
5725 5727 5730 5730 5732 5734 5735 5737 5735 5736 5735 5735 5734 5733 5732 5732 5731 5730 5731 5730 5727 5724 5723 5722 5721 5719 5720 5722 5723 5725 5729 5731 5733 5737 5741 5744 5747 5750 5753 5756 5758 5760 5761 5763 5764 5765 5764 5766 5766
5720 5722 5723 5723 5725 5727 5731 5732 5735 5733 5731 5730 5730 5730 5729 5729 5729 5728 5728 5727 5727 5724 5721 5721 5721 5719 5718 5720 5722 5724 5726 5728 5731 5736 5738 5740 5743 5746 5749 5751 5753 5754 5756 5757 5758 5758 5759 5758 5759
5711 5717 5716 5717 5717 5722 5724 5728 5731 5730 5728 5727 5726 5726 5726 5727 5727 5726 5726 5725 5724 5723 5722 5721 5720 5720 5720 5720 5721 5722 5724 5726 5728 5731 5734 5736 5738 5741 5743 5745 5746 5748 5750 5751 5751 5753 5755 5755 5758
5708 5706 5709 5709 5712 5714 5720 5722 5727 5727 5725 5723 5722 5722 5722 5724 5725 5725 5724 5723 5723 5723 5721 5721 5720 5721 5721 5722 5722 5723 5724 5725 5726 5727 5730 5734 5736 5737 5739 5740 5742 5745 5746 5747 5748 5751 5752 5755 5757
5694 5698 5701 5705 5706 5707 5714 5715 5722 5723 5721 5720 5719 5718 5718 5719 5721 5723 5723 5721 5721 5722 5721 5721 5721 5720 5720 5722 5723 5723 5723 5725 5726 5727 5729 5731 5733 5734 5736 5737 5740 5741 5744 5745 5746 5748 5749 5750 5752
5685 5692 5696 5701 5698 5704 5705 5708 5718 5719 5717 5716 5716 5715 5714 5715 5717 5720 5720 5719 5719 5719 5720 5720 5721 5721 5720 5721 5723 5724 5725 5725 5726 5727 5729 5731 5732 5735 5735 5736 5737 5740 5741 5742 5743 5744 5745 5745 5746
5683 5688 5691 5693 5694 5701 5697 5696 5712 5713 5713 5712 5713 5711 5710 5711 5712 5715 5717 5716 5716 5717 5718 5719 5719 5720 5721 5721 5721 5722 5723 5724 5725 5726 5727 5728 5730 5731 5734 5734 5735 5736 5737 5737 5738 5739 5739 5739 5740
5672 5673 5684 5683 5686 5690 5692 5692 5701 5706 5708 5707 5708 5707 5706 5707 5707 5710 5714 5713 5713 5713 5714 5715 5717 5718 5719 5720 5721 5720 5720 5723 5724 5724 5726 5726 5727 5728 5730 5731 5731 5731 5732 5732 5732 5732 5732 5732 5732
5663 5667 5672 5673 5676 5680 5686 5688 5692 5699 5700 5700 5702 5702 5702 5702 5703 5705 5708 5710 5710 5709 5711 5712 5713 5714 5715 5716 5717 5718 5718 5718 5719 5721 5722 5722 5723 5725 5726 5727 5726 5726 5727 5726 5725 5725 5725 5723 5723
5655 5658 5665 5668 5671 5674 5679 5683 5684 5689 5692 5694 5694 5695 5695 5696 5696 5699 5702 5705 5706 5707 5707 5708 5708 5709 5709 5711 5712 5713 5714 5714 5715 5716 5717 5717 5718 5719 5720 5720 5719 5719 5718 5717 5716 5716 5715 5714 5715
5646 5650 5656 5659 5662 5667 5671 5678 5676 5682 5686 5687 5690 5692 5691 5691 5691 5692 5697 5699 5700 5701 5703 5703 5703 5704 5704 5703 5705 5706 5707 5709 5710 5711 5711 5711 5712 5712 5713 5713 5712 5711 5709 5707 5706 5704 5704 5703 5704